Flight Information

DEPARTURE
DENVER, CO
Elevation:
5884
Runways:
17L/35R - 10001x100 - ASPH-G
17R/35L - 7001x75 - ASPH-G
H1 - 50x50 - CONC-G
10/28 - 4800x75 - ASPH-G
Active PE Departure:
17L - 17R
Current PE ATIS:
P
Altimeter:
30.03
Remarks:
ATIS:
120.3 303-799-6722
Clearance Delivery:
128.6
Ground:
121.8
Tower:
CENTENNIAL TOWER 118.9
DESTINATION
,
Elevation:
TPA:
1000 (est.)


6083.4 NM80° True-11° Var69° HDG

Flight Plan:
(click to file on line)

1. Type
2. Aircraft Identification
3. Aircraft Type / Special Equipment
4. True Airspeed
kts
5. Departure Airport
(ICAO code)
6. Arriving Airport
(ICAO code)
7. Cruising Altitude
ft
8. Alternate Airport
(ICAO code)
9. Route of Flight
10. Remarks


00:00:00 Departure ATIS: Destination ATIS:

Clearance Limit:
Route:
Altitude: Expect in minutes
Frequency:
Transponder: (7500 Hijack / 7600 Lost Comms / 7700 Emergency)


KAPA 100553Z 11004KT 10SM CLR M02/M14 A3003 RMK AO2 SLP176 T10221144 10050 21033 53017
Time: 2022-12-10T05:53:00Z
1670653001
Winds: 110 @ 4 kts
Visibility: 10.0 sm
Clouds (AGL): CLR
Temperature: -2.2 C
Dew Point: -14.4 C
Pressure: 30.029528 in Hgbr


Notes:

Data extracted from FAA Digital Chart Supplement. Effective: 0901Z Thursday, 27 JAN 2022 to 0900z Thursday, 24 MAR 2022
Current ATIS data is provided courtisy of PilotEdge.